Regional Weather Roundup
Issued by NWS Upton, NY

Current Version | Previous Version | Graphics & Text | Print | Product List | Glossary Off
Versions: 1 2 3 4 5 6 7 8 9 10 11 12 13 14 15 16 17 18 19 20 21 22 23 24 25 26 27 28

000
ASUS41 KOKX 240609
RWROKX

REGIONAL WEATHER ROUNDUP
NATIONAL WEATHER SERVICE NEW YORK NY
200 AM EDT WED MAY 24 2017

NOTE: "FAIR" INDICATES FEW OR NO CLOUDS BELOW 12,000 FEET WITH NO
SIGNIFICANT WEATHER AND/OR OBSTRUCTIONS TO VISIBILITY.

NYZ071-072-176-178-NJZ106-104-240700-
NEW YORK CITY METRO AREA

CITY           SKY/WX    TMP DP  RH WIND       PRES   REMARKS
Central Park   CLOUDY    60  48  64 NE3       29.77F
Wall St Helipt CLOUDY    61  49  64 NE5       29.76S
Bronx Bot Gard   N/A     59  48  67 NE1       29.76S
LaGuardia APRT CLOUDY    60  51  72 NE6       29.74F
Kennedy INTL   CLOUDY    59  53  80 E5        29.76F
Breezy Point     N/A     57 N/A N/A E3          N/A
Newark/Liberty CLOUDY    62  48  60 NE3       29.74F
Teterboro      CLOUDY    61  52  72 N3        29.74F
$$

NYZ177-179-078>081-240700-
LONG ISLAND NEW YORK

CITY           SKY/WX    TMP DP  RH WIND       PRES   REMARKS
Jones Beach      N/A     57 N/A N/A E6          N/A
Matinecock PT    N/A     59 N/A N/A SE1         N/A
Farmingdale    CLOUDY    57  51  80 SE7       29.76F
MacArthur/ISP  CLOUDY    58  52  80 SE5       29.75F
Shirley        CLOUDY    56  54  93 CALM      29.77F
Mt Sinai Harb    N/A     57 N/A N/A MISG        N/A
Westhampton    CLOUDY    55  51  86 E3        29.78F
East Hampton     N/A     53  51  92 CALM      29.77F
Montauk          N/A     56  53  90 CALM      29.79F
$$

NYZ052-065-067-240700-
HUDSON VALLEY

CITY           SKY/WX    TMP DP  RH WIND       PRES   REMARKS
White Plains   CLOUDY    56  51  84 NW3       29.75F
Larchmont Harb   N/A     57 N/A N/A N2          N/A
Croton O-T Hud   N/A     57 N/A N/A N1          N/A
Newburgh       MOCLDY    55  54  94 CALM      29.77F
Montgomery     MOCLDY    53  52  96 N3        29.76F
Poughkeepsie   CLOUDY    53  51  93 CALM      29.76F
Albany         CLOUDY    56  50  80 CALM      29.78F
$$

NJZ001-105-106-008-010-013-015-019>022-104-240700-
NEW JERSEY

CITY           SKY/WX    TMP DP  RH WIND       PRES   REMARKS
Newark/Liberty CLOUDY    62  48  60 NE3       29.74F
Teterboro      CLOUDY    61  52  72 N3        29.74F
Caldwell       CLOUDY    60  53  77 CALM      29.76F
Somerville     CLOUDY    57  56  96 CALM      29.73F
Linden           N/A     62  47  58 CALM      29.75S
Perth Amboy      N/A     59 N/A N/A E6          N/A
Sussex         CLOUDY    53  52  96 CALM      29.77F
Andover          N/A     55  53  93 CALM      29.76F
Trenton        LGT RAIN  58  54  86 CALM      29.74F
Millville      LGT RAIN  56  55  97 NE3       29.74R
Atlantic City  LGT RAIN  57  55  93 NE7       29.72F
Wrightstown    CLOUDY    55  52  88 NE3       29.72R
Toms River     LGT RAIN  56  54  93 CALM      29.75S
Belmar         LGT RAIN  56  53  90 NE3       29.75F
$$

PAZ047>061-062-071-240700-
EASTERN PENNSYLVANIA

CITY           SKY/WX    TMP DP  RH WIND       PRES   REMARKS
Philadelphia   LGT RAIN  58  52  80 E7        29.75S
Allentown      CLOUDY    57  52  83 CALM      29.76S
Scranton       CLOUDY    54  49  83 E5        29.76F
$$

CTZ002-004>006-009-010-012-RIZ004-006-007-MAZ004-011-015-240700-
SOUTHERN NEW ENGLAND
 IN CT

CITY           SKY/WX    TMP DP  RH WIND       PRES   REMARKS
Bradley INTL   CLOUDY    54  53  97 N3        29.78F
Hartford       CLOUDY    57  54  89 CALM      29.77F
Danbury        CLOUDY    55  53  93 CALM      29.78F
Wtrbury/Oxford   N/A     54  48  82 CALM      29.78F
Bridgeport     CLOUDY    60  53  77 NE3       29.76F
Meriden        CLOUDY    55  53  93 CALM      29.77F
New Haven      CLOUDY    56  53  90 N5        29.76F
Chester          N/A     55  54  94 CALM      29.77F
Groton         CLOUDY    57  53  86 E3        29.77F
Wilimantic     CLOUDY    56  53  90 NE5       29.79F

 IN RI

CITY           SKY/WX    TMP DP  RH WIND       PRES   REMARKS
Providence     CLOUDY    56  54  93 S5        29.80F
Block Island   CLOUDY    54  53  97 CALM      29.80F
Westerly       CLOUDY    56  53  90 N3        29.79F
 IN MA

CITY           SKY/WX    TMP DP  RH WIND       PRES   REMARKS
Boston         CLOUDY    57  54  89 S6        29.80F
Worcester      CLOUDY    57  46  66 CALM      29.80F
Westfield      CLOUDY    53  53 100 N5        29.78F
Provincetown   CLOUDY    54  53  97 S6        29.81F
Nantucket      CLOUDY    52  50  93 SE3       29.81F
$$

ANZ330-335-338-340-345-350-353-355-240700-
COASTAL MARINE OBSERVATIONS


STATION/POSITION TIME  SKY/WX   TEMP    WIND        PRES    VSBY  WAVE
                                AIR SEA DIR/SP/G                  HT/PER
                 (UTC)          (F)     (DEG/KT/KT) (MB)    (MI)  (FT/S)
NY HARB ENTRANCE 0450            59 58   80/  6/  6 1008.0          3/ 8
20 S FIRE ISLAND 0550            56 56   90/  8/ 10 1006.9          3/ 7
GREAT SOUTH BAY  0430            60 64   10/  4/  4   N/A
23 SSW MONTAUK P 0550            55 56              1008.6          3/ 7
15 E BARNEGAT LI 0500               58                N/A           3/ 7
HUDSON CANYON    0450            55 54   80/ 12/ 14 1007.0          3/ 7
KINGS POINT      0548            58 58   50/  2/  3 1007.2
EXECUTION ROCKS  0545            60                   N/A
CENTRAL LI SOUND 0530            56      30/  4/  4   N/A           0
EASTERN LI SOUND NOT AVBL
ROBBINS REEF     0548            62     120/  3/  4 1007.7
$$


>>>>>>>>>>>>>>>>>>>>>>>>>>>> KEY <<<<<<<<<<<<<<<<<<<<<<<<<<<
>                                                          <
>     SKY/WX - Sky Condition/Present Weather               <
>     TMP    - Temperature in Fahrenheit                   <
>     DP     - Dew Point in Fahrenheit                     <
>     RH     - Relative Humidity in Percent                <
>     WIND   - Direction (from) and Speed in MPH           <
>     PRES   - Mean Sea Level Pressure (inches of Hg)      <
>     WCI    - Wind Chill Index                            <
>     VSB    - VISIBILITY IN MILES                         <
>     HX     - HEAT INDEX                                  <
>     TC     - TEMPERATURE IN CELSIUS                      <
>     VRB    - VARIABLE WIND DIRECTION                     <
>                                                          <
>>>>>>>>>>>>>>>>>>>>>>>>>>>> KEY <<<<<<<<<<<<<<<<<<<<<<<<<<<




USA.gov is the U.S. government's official web portal to all federal, state and local government web resources and services.